Location: Bavegemberg
(50.9500°N, 3.8833°E)
Time: 07:08:53
(UTC+00:00)

FENGYUN 1C DEB - Pass Details

Date: 05 October 2024
Orbit: 756 x 948 km, 98.7° (Epoch: 04 November)

Event Time Altitude Azimuth Distance (km) Brightness Sun altitude
Exits shadow 23:26:26 15° 351° (N) 2,134 ? -44.3°
Drops below altitude 10° 23:27:22 10° 350° (N) 2,499 ? -44.3°
Sets 23:29:50 0° 347° (NNW) 3,470 ? -44.3°
